Regional Weather Roundup
Issued by NWS Green Bay, WI

Home | Current Version | Previous Version | Text Only | Print | Product List | Glossary On
Versions: 1 2 3 4 5 6 7 8 9 10 11 12 13 14 15 16 17 18 19 20 21 22 23 24 25 26 27 28 29 30 31 32 33 34 35 36 37 38 39 40 41 42 43 44 45 46 47 48 49 50
000
ASUS43 KGRB 270300
RWRGRB

NORTH-CENTRAL AND NORTHEAST WISCONSIN REGIONAL WEATHER ROUNDUP
NATIONAL WEATHER SERVICE GREEN BAY WI
1000 PM CDT FRI AUG 26 2016

WIZ005-009-010>012-018-019-270400-
NORTH CENTRAL WISCONSIN

CITY           SKY/WX    TMP DP  RH WIND       PRES   REMARKS
IRONWOOD       CLOUDY    53  52  96 E3        30.16
MANITOWISH WTR NOT AVBL
ARBOR VITAE    NOT AVBL
EAGLE RIVER    NOT AVBL
LAND O LAKES   NOT AVBL
RHINELANDER    MOCLDY    54  54 100 CALM      30.18S
PHILLIPS       CLOUDY    54  54 100 CALM      30.16S
ANTIGO         NOT AVBL
TOMAHAWK       NOT AVBL
MERRILL        CLOUDY    57  57 100 CALM      30.18S
$$

WIZ013-073-270400-
NORTHEAST WISCONSIN

CITY           SKY/WX    TMP DP  RH WIND       PRES   REMARKS
IRON MOUNTAIN  PTCLDY    57  54  89 CALM      30.16R
MARINETTE      CLOUDY   N/A N/A N/A CALM      30.16R
$$

WIZ017-030-035>037-045-270400-
CENTRAL WISCONSIN

CITY           SKY/WX    TMP DP  RH WIND       PRES   REMARKS
MEDFORD        NOT AVBL
WAUSAU         MOCLDY    63  57  81 CALM      30.16R
MOSINEE        CLEAR     61  57  88 CALM      30.18R
MARSHFIELD     CLOUDY    62  57  83 CALM      30.16R
WISC RAPIDS    CLOUDY    61  59  93 CALM      30.18R
STEVENS POINT  NOT AVBL
WAUPACA        NOT AVBL
SHAWANO        NOT AVBL
CLINTONVILLE   PTCLDY    61  57  88 CALM      30.16S
WAUTOMA        CLOUDY    64  61  90 CALM      30.17S
$$

WIZ038-039-048-051-270400-
FOX VALLEY

CITY           SKY/WX    TMP DP  RH WIND       PRES   REMARKS
NWS GREEN BAY  CLOUDY    62  62 100 CALM      30.16R
APPLETON       CLOUDY    66  55  68 CALM      30.16R
OSHKOSH        MOCLDY    65  60  84 S3        30.16F
FOND DU LAC    CLOUDY    62  59  90 S5        30.17S
$$

WIZ022-050-052-270400-
EAST CENTRAL WISCONSIN

CITY           SKY/WX    TMP DP  RH WIND       PRES   REMARKS
EPHRAIM        NOT AVBL
WASHINGTON ISL NOT AVBL
STURGEON BAY   CLOUDY    64  58  80 S5        30.17R
MANITOWOC      NOT AVBL
SHEBOYGAN      PTCLDY    62  58  86 CALM      30.18R
$$

LMZ563-521-522-541>543-270400-
LAKESHORE

STATION/POSITION TIME  TEMP    WIND        PRES    VSBY  WAVE
                       AIR SEA DIR/SP/G                  HT/PER
                 (UTC) (F)     (DEG/KT/KT) (MB)    (MI)  (FT/S)
SHEBOYGAN LKSHOR 0200   67     220/  4/  4 1021.3R
KEWAUNEE LKSHORE 0200   62                 1020.8
NORTHPORT PIER   0200   66     190/  2/  4 1020.3R
N MID LAKE BUOY  0150   69 71  230/  6/  8 1020.4R         1/ 3
S GREEN BAY BUOY 0200   70 72  230/ 12/ 14 1020.5
CHAMBERS ISLAND  0200   68     280/  3/  5 1020.7R
MENOMINEE LKSHOR 0200   68                 1019.8
$$




USA.gov is the U.S. government's official web portal to all federal, state and local government web resources and services.